Find Starlink 30562

NORAD ID: 58033 Int'l Des: 2023-156 Owner: SPXS Country: US Constellation: starlink operational
LEOCIRCULAR

現在のビュー

3D地球を読み込み中...

About Starlink 30562

Starlink 30562 (NORAD 58033) is a starlink constellation satellite (v2 mini) launched Oct 9, 2023 by SPXS of US. It operates in LEO, CIRCULAR orbit with a mass of 730.00 kg.

Starlink 30562について

説明を読み込み中...

次回通過

Passes for default location (London). Set your location on the main map for personalized predictions.

高度履歴

Loading altitude history...

軌道要素

1 58033U 23156F 26169.97209953 .00000936 00000-0 43747-4 0 9991
2 58033 53.1613 57.4498 0001341 107.4674 252.6473 15.30193361150541
Epoch: Jun 18, 2026 • Age: 29 hours

現在のステータス

高度 490.1 km
速度 7.62 km/s
衛星直下点 -42.74°S, 61.83°W
打ち上げ日 Oct 9, 2023
運用期間 2.6 years
タイプ internet

技術仕様

分類 Payload
質量 730.00 kg
乾燥質量 700.00 kg
総質量 730.00 kg
長さ 0.30 m
直径 4.10 m
スパン 29.00 m
形状 Box + pan
製造者 SPXS
バスタイプ Starlink V2M
フェーズステータス In Orbit
所有者/国 SPXS/US

Most Searched